SCOUT B DEB, 29170

Orbit data source: Space-Track

SCOUT B DEB, 29170 is space debris in LEO originally from a launch on Tue, 10 Aug 1965 UTC launched from the Wallops Island (WLPIS). Debris objects in space refer to the collection of defunct objects orbiting the Earth. Examples of debris include non-operational satellites, rocket bodies, and fragments generated from explosions, collisions, or faulty payload assembly.

Loading next visibility...
Identifier
29170, 1965-063U
Orbit
LEO
Country
Flag of USUS
Related business
Manufacturer
Unknown
Mission
Spacecraft
Bus & Motor
Unknown
Mass
Unknown
Launch date (UTC)
1965-08-10 (60 years ago)
Launch vehicle
Unknown
Launch site
Wallops Island (WLPIS)
Object type
Payload
Rocket body
Debris
Shape & HBR
Unknown shape, 0.1 m
Radar Cross Section
Small (<0.1 m²)

Expand to show TLE details & history
Last TLE update: 1 month ago

TLE from 1 month ago
0 SCOUT B DEB
1 29170U 65063U   25256.91276762  .00000895  00000-0  58839-2 0  9996
2 29170  69.2246 320.0756 0751675 219.6228 326.3035 11.90195722 49422
Epoch: 2025-09-13T21:54Z
TLE epoch observation values (Epoch: 2025-09-13T21:54:23.122Z)
Latitude
-0.80177°
Longitude
178.64258°
Altitude
1,235.934 km
Speed
7.453 km/s
True Right ascension
09h 21m 30s
True Declination
0° 47' 50"
Sunlit
Object was in daylight at epoch
Visualization orbit readout
Latitude
Unknown
Longitude
Unknown
Altitude
Unknown
Speed
Unknown
Apparent Right ascension
Unknown
Apparent Declination
Unknown
Sunlit
N/A
Visualization observer readout
Local Sidereal Time
18:19:17
Azimuth
Unknown
Elevation
Unknown
Doppler factor
Unknown
Orbital elements
Apogee altitude
2,332.325 km
Perigee altitude
1,114.387 km
Semi-major axis
8,101.493 km
Eccentricity
0.07517
Inclination
69.2246°
RAAN
320.0756°
Arg. of periapsis
219.6228°
True anomaly
321.12814°
Mean anomaly
326.3035°
Eccentric anomaly
323.7573°
Mean motion
2.97643 °/min
Orbital period
120.95 mins
BSTAR
0.0058839
Loading maneuver chart data...
Computing Atmospheric mass density...
Loading historical data...
Loading historical data...
Loading historical data...
Loading historical data...
Loading historical data...
Loading historical data...
Loading historical data...

Documentation

Showing up to 5 results
|